Weather reports worldwide

Advertisment
Malaga/Aeropuerto, Spain (8482): temperature & dewpoint: 19.03.2019 18:00:00 - 25.03.2019 18:00:00 (CET)Malaga/Aeropuerto, Spain (8482): wind speed: 19.03.2019 18:00:00 - 25.03.2019 18:00:00 (CET)Malaga/Aeropuerto, Spain (8482): wind direction: 19.03.2019 18:00:00 - 25.03.2019 18:00:00 (CET)Malaga/Aeropuerto, Spain (8482): reduced air pressure: 19.03.2019 18:00:00 - 25.03.2019 18:00:00 (CET)Malaga/Aeropuerto, Spain (8482): visibility: 19.03.2019 18:00:00 - 25.03.2019 18:00:00 (CET)
Date & Time tt [°C] td [°C] ff [km/h] ff [kn] dd ppp [hPa] vv [km]
25.03.2019 18:00:00 - - - - - - -
25.03.2019 17:00:00 20,0 10,0 13 7 ESE 1015,9 -
25.03.2019 16:00:00 19,9 10,1 11 6 SE 1016,3 35
25.03.2019 15:00:00 20,4 9,7 15 8 ESE 1016,9 -
25.03.2019 14:00:00 20,4 9,3 13 7 ESE 1018,0 35
25.03.2019 13:00:00 19,8 9,2 15 8 ESE 1018,8 35
25.03.2019 12:00:00 20,1 9,7 15 8 SE 1019,1 -
25.03.2019 11:00:00 19,3 9,6 11 6 SE 1019,4 -
25.03.2019 10:00:00 17,1 10,3 5 3 W 1019,5 25
25.03.2019 09:00:00 12,9 9,1 15 8 WNW 1019,4 -
25.03.2019 08:00:00 11,1 8,2 15 8 W 1019,5 20
25.03.2019 07:00:00 9,9 8,0 15 8 WNW 1019,0 15
25.03.2019 06:00:00 10,0 8,1 15 8 WNW 1019,0 -
25.03.2019 05:00:00 11,1 8,8 16 9 W 1019,0 -
25.03.2019 04:00:00 12,4 8,8 13 7 W 1019,1 15
25.03.2019 03:00:00 11,7 9,0 13 7 W 1019,8 -
25.03.2019 02:00:00 12,1 9,1 9 5 W 1020,3 -
25.03.2019 01:00:00 13,2 9,5 11 6 W 1020,5 15
25.03.2019 00:00:00 14,0 10,0 11 6 W 1020,7 -
24.03.2019 23:00:00 14,3 10,4 9 5 W 1021,0 -
24.03.2019 22:00:00 15,6 10,7 0 0 N 1021,2 15
24.03.2019 21:00:00 15,9 11,0 5 3 S 1020,8 -
24.03.2019 20:00:00 16,0 11,4 9 5 SSE 1020,6 -
24.03.2019 19:00:00 16,3 11,1 11 6 SE 1020,5 20
24.03.2019 18:00:00 16,3 11,2 11 6 E 1020,6 -
24.03.2019 17:00:00 16,7 11,6 18 10 E 1020,6 -
24.03.2019 16:00:00 17,4 12,2 22 12 E 1020,5 15
24.03.2019 15:00:00 17,6 11,6 16 9 E 1021,0 -
24.03.2019 14:00:00 18,4 10,9 13 7 ESE 1021,5 15
24.03.2019 13:00:00 16,8 11,6 9 5 SE 1021,7 15
24.03.2019 12:00:00 16,6 11,8 11 6 SSE 1021,8 -
24.03.2019 11:00:00 18,2 10,5 9 5 SSE 1021,7 -
24.03.2019 10:00:00 17,1 11,8 8 4 SSE 1021,3 15
24.03.2019 09:00:00 14,5 9,8 9 5 WNW 1020,8 -
24.03.2019 08:00:00 13,2 9,3 11 6 W 1020,5 15
24.03.2019 07:00:00 12,7 9,1 8 4 WNW 1020,2 15
24.03.2019 06:00:00 12,4 8,9 9 5 W 1020,3 -
24.03.2019 05:00:00 15,3 10,3 15 8 SE 1020,1 -
24.03.2019 04:00:00 15,5 10,3 13 7 ESE 1020,0 15
24.03.2019 03:00:00 15,8 9,8 16 9 ESE 1020,5 -
24.03.2019 02:00:00 15,5 10,5 18 10 ESE 1020,8 -
24.03.2019 01:00:00 15,4 10,7 21 11 ESE 1021,1 15
24.03.2019 00:00:00 15,8 10,5 22 12 ESE 1021,4 -
23.03.2019 23:00:00 15,6 10,4 26 14 ESE 1021,8 -
23.03.2019 22:00:00 15,6 11,1 22 12 E 1021,9 15
23.03.2019 21:00:00 15,6 11,0 21 11 E 1021,6 -
23.03.2019 20:00:00 15,7 11,3 18 10 E 1021,3 -
23.03.2019 19:00:00 16,5 11,2 21 11 E 1021,2 20
23.03.2019 18:00:00 17,7 10,9 28 15 ESE 1021,0 -
23.03.2019 17:00:00 18,2 11,3 31 17 ESE 1021,4 -
23.03.2019 16:00:00 18,7 10,8 31 17 E 1021,6 15
23.03.2019 15:00:00 18,8 11,8 34 18 E 1022,0 -
23.03.2019 14:00:00 18,8 11,5 31 17 E 1022,9 15
23.03.2019 13:00:00 17,3 10,8 24 13 E 1023,7 15
23.03.2019 12:00:00 18,2 11,2 29 16 ESE 1024,0 -
23.03.2019 11:00:00 17,2 11,1 22 12 E 1024,1 -
23.03.2019 10:00:00 16,6 10,2 13 7 E 1024,2 15
23.03.2019 09:00:00 13,0 8,9 11 6 W 1024,2 -
23.03.2019 08:00:00 11,2 8,1 11 6 WNW 1024,1 15
23.03.2019 07:00:00 11,2 8,5 9 5 WNW 1023,5 15
23.03.2019 06:00:00 12,0 8,9 15 8 W 1023,5 -
23.03.2019 05:00:00 12,6 8,8 9 5 WNW 1023,7 -
23.03.2019 04:00:00 12,0 8,8 8 4 W 1024,2 15
23.03.2019 03:00:00 12,5 8,8 8 4 W 1024,8 -
23.03.2019 02:00:00 13,9 9,5 8 4 E 1025,0 -
23.03.2019 01:00:00 14,3 9,5 9 5 E 1025,1 15
23.03.2019 00:00:00 14,6 9,2 16 9 E 1025,5 -
22.03.2019 23:00:00 14,3 9,4 15 8 E 1025,8 -
22.03.2019 22:00:00 14,3 9,5 15 8 E 1025,7 20
22.03.2019 21:00:00 14,5 9,3 18 10 E 1025,3 -
22.03.2019 20:00:00 15,0 10,0 22 12 E 1024,8 -
22.03.2019 19:00:00 16,1 9,2 21 11 ESE 1024,6 20
22.03.2019 18:00:00 17,3 9,0 18 10 ESE 1024,3 -
22.03.2019 17:00:00 17,6 8,6 22 12 ESE 1024,4 -
22.03.2019 16:00:00 17,8 9,1 26 14 ESE 1024,7 25
22.03.2019 15:00:00 19,1 9,1 22 12 ESE 1025,0 -
22.03.2019 14:00:00 18,3 8,1 24 13 ESE 1025,4 30
22.03.2019 13:00:00 18,0 6,8 24 13 E 1025,6 30
22.03.2019 12:00:00 17,6 5,7 22 12 ESE 1025,9 -
22.03.2019 11:00:00 16,5 6,0 16 9 E 1026,2 -
22.03.2019 10:00:00 15,4 7,0 4 2 N 1026,1 35
22.03.2019 09:00:00 12,4 7,3 9 5 WNW 1025,8 -
22.03.2019 08:00:00 10,8 7,1 11 6 W 1025,6 25
22.03.2019 07:00:00 12,3 6,5 5 3 NW 1025,3 20
22.03.2019 06:00:00 12,8 6,9 13 7 ENE 1025,0 -
22.03.2019 05:00:00 13,2 7,4 11 6 E 1025,0 -
22.03.2019 04:00:00 13,8 7,9 16 9 E 1025,1 15
22.03.2019 03:00:00 14,2 7,8 22 12 E 1025,4 -
22.03.2019 02:00:00 14,4 7,5 22 12 E 1025,8 -
22.03.2019 01:00:00 14,5 7,7 26 14 ESE 1026,0 15
22.03.2019 00:00:00 14,8 7,7 24 13 E 1026,3 -
21.03.2019 23:00:00 14,6 7,9 21 11 E 1026,4 -
21.03.2019 22:00:00 14,5 8,2 18 10 ESE 1026,3 20
21.03.2019 21:00:00 14,1 8,7 15 8 ESE 1026,1 -
21.03.2019 20:00:00 14,7 7,3 16 9 ESE 1025,3 -
21.03.2019 19:00:00 15,6 7,8 16 9 ESE 1025,2 25
21.03.2019 18:00:00 16,6 7,3 21 11 ESE 1025,0 -
21.03.2019 17:00:00 17,5 7,1 22 12 ESE 1025,0 -
21.03.2019 16:00:00 17,8 6,3 24 13 ESE 1025,1 35
21.03.2019 15:00:00 17,7 5,5 26 14 ESE 1025,3 -
21.03.2019 14:00:00 17,9 4,6 28 15 ESE 1025,8 35
21.03.2019 13:00:00 17,4 3,6 28 15 ESE 1026,3 35
21.03.2019 12:00:00 16,8 3,7 22 12 E 1026,4 -
21.03.2019 11:00:00 16,5 2,9 16 9 ESE 1026,6 -
21.03.2019 10:00:00 14,1 5,3 4 2 NW 1026,4 35
21.03.2019 09:00:00 11,7 6,5 13 7 W 1026,5 -
21.03.2019 08:00:00 9,9 6,0 8 4 WNW 1025,9 20
21.03.2019 07:00:00 9,6 6,1 8 4 W 1025,4 15
21.03.2019 06:00:00 11,7 6,3 8 4 ENE 1025,1 -
21.03.2019 05:00:00 12,3 6,7 9 5 NE 1025,1 -
21.03.2019 04:00:00 12,8 5,7 15 8 E 1025,1 15
21.03.2019 03:00:00 13,3 7,1 16 9 E 1025,7 -
21.03.2019 02:00:00 13,1 8,0 16 9 E 1026,2 -
21.03.2019 01:00:00 12,9 8,8 18 10 E 1026,6 12
21.03.2019 00:00:00 12,8 8,8 13 7 E 1027,1 -
20.03.2019 23:00:00 12,8 8,8 22 12 E 1027,5 -
20.03.2019 22:00:00 12,8 8,8 24 13 E 1027,3 8
20.03.2019 21:00:00 14,3 7,3 21 11 ESE 1026,7 -
20.03.2019 20:00:00 14,3 7,2 21 11 ESE 1026,2 -
20.03.2019 19:00:00 14,8 7,8 21 11 E 1025,8 25
20.03.2019 18:00:00 15,8 7,7 22 12 ESE 1025,2 -
20.03.2019 17:00:00 16,6 7,7 24 13 ESE 1025,0 -
20.03.2019 16:00:00 16,6 8,0 21 11 ESE 1025,2 25
20.03.2019 15:00:00 17,6 8,2 22 12 E 1025,7 25
20.03.2019 14:00:00 17,3 7,1 22 12 E 1026,2 25
20.03.2019 13:00:00 16,8 8,0 24 13 E 1026,7 25
20.03.2019 12:00:00 15,9 7,6 24 13 ESE 1026,8 -
20.03.2019 11:00:00 14,8 7,5 21 11 ESE 1026,8 -
20.03.2019 10:00:00 14,4 7,9 16 9 ESE 1026,2 20
20.03.2019 09:00:00 14,2 7,7 18 10 ESE 1025,7 -
20.03.2019 08:00:00 13,8 8,1 18 10 ESE 1025,4 30
20.03.2019 07:00:00 13,6 8,7 15 8 E 1024,7 15
20.03.2019 06:00:00 13,4 8,7 15 8 ESE 1024,4 -
20.03.2019 05:00:00 13,2 9,1 16 9 ESE 1024,4 -
20.03.2019 04:00:00 13,8 10,1 15 8 ESE 1024,6 15
20.03.2019 03:00:00 14,4 9,1 18 10 E 1024,9 -
20.03.2019 02:00:00 14,4 9,7 22 12 E 1025,2 -
20.03.2019 01:00:00 14,6 10,8 18 10 E 1025,4 15
20.03.2019 00:00:00 14,4 11,4 18 10 E 1025,4 -
19.03.2019 23:00:00 15,3 12,1 21 11 E 1025,0 -
19.03.2019 22:00:00 15,7 11,4 18 10 ESE 1024,2 20
19.03.2019 21:00:00 15,8 11,2 15 8 ESE 1023,4 -
19.03.2019 20:00:00 15,8 11,4 15 8 ESE 1022,5 -
19.03.2019 19:00:00 17,1 11,7 16 9 ESE 1021,5 20
19.03.2019 18:00:00 18,1 12,1 15 8 ESE 1020,6 -

tt = temperature
td = dewpoint
ff = wind speed
dd = wind direction
ppp = reduced air pressure
vv = visibility

Next stations